[[{"header":{"parameterUnit":"m.s-1","parameterCategory":1,"la1":30.2991,"la2":30.254,"lo1":-89.0895,"lo2":-89.0444,"dy":0.0017,"dx":0.0017,"nx":28,"ny":28,"refTime":"2025-01-24T09:00:00:Z","depth":0,"parameterNumber":2,"parameterNumberName":"U-component_of_WINDS"},"data":[0,0,0,0,0,0,0,0,0,0,0,0,0,0,0,0,0,0,0,0,0,0,0,0,0,0,0,0,0,0,0,0,0,0,0,0,0,0,0,0,0,0,0,0,0,0,0,0,0,0,0,0,0,0,0,0,0,0,-4.2875,-4.2875,0,-4.2908,-4.2908,-4.2908,-4.2785,-4.2781,-4.2777,-4.2774,-4.2807,-4.2811,-4.2816,0,0,0,0,0,0,0,0,0,0,0,0,0,-4.2702,-4.2706,-4.2875,-4.2875,-4.2876,-4.2908,-4.2908,-4.2909,-4.2785,-4.2781,-4.2776,-4.2772,-4.2806,-4.2811,-4.2816,0,0,0,0,0,0,0,0,0,0,0,0,0,-4.2761,-4.2707,-4.2875,-4.2818,-4.2813,-4.2908,-4.2908,-4.2909,-4.2786,-4.2781,-4.2775,-4.277,-4.2804,-4.281,-4.2817,-4.2967,0,0,-4.2836,-4.2839,0,0,0,0,0,0,0,0,-4.2757,-4.2767,-4.2826,-4.2822,-4.2817,-4.2836,-4.2859,-4.2928,-4.2788,-4.2797,-4.2774,-4.2767,-4.2821,-4.2826,-4.2844,-4.2969,-4.297,-4.2837,-4.2841,-4.2844,-4.2846,0,0,0,0,0,0,0,-4.2753,-4.2765,-4.2888,-4.2827,-4.2821,-4.279,-4.2792,-4.2872,-4.2839,-4.2795,-4.2786,-4.2792,-4.2818,-4.2838,-4.2844,-4.2971,-4.2837,-4.2843,-4.2847,-4.2849,-4.3216,-4.3221,0,0,0,0,0,0,-4.2757,-4.2762,-4.2887,-4.2889,-4.2773,-4.2798,-4.28,-4.2836,-4.2838,-4.2833,-4.2797,-4.2786,-4.283,-4.2837,-4.2845,-4.3018,-4.2844,-4.285,-4.2853,-4.321,-4.3217,-4.3224,0,0,0,0,0,0,-4.2754,-4.2769,-4.2885,-4.2823,-4.2835,-4.2806,-4.2848,-4.2839,-4.286,-4.2839,-4.2833,-4.2824,-4.2826,-4.2836,-4.2937,-4.3017,-4.2853,-4.2859,-4.3203,-4.3212,-4.322,-4.3368,0,0,0,0,0,0,-4.275,-4.2769,-4.2827,-4.2825,-4.2839,-4.2978,-4.2853,-4.2844,-4.2871,-4.2858,-4.2863,-4.2859,-4.2822,-4.2928,-4.2943,-4.3023,-4.2864,-4.3196,-4.3207,-4.3218,-4.3355,-4.338,-4.3402,0,0,0,0,0,-4.2744,-4.2868,-4.283,-4.2846,-4.2911,-4.2983,-4.2991,-4.2947,-4.2878,-4.2935,-4.2922,-4.2858,-4.3007,-4.2939,-4.2955,-4.3039,-4.319,-4.3204,-4.3217,-4.3345,-4.3376,-4.3401,0,0,0,0,0,0,-4.288,-4.2866,-4.2825,-4.2952,-4.297,-4.2962,-4.3032,-4.2981,-4.3018,-4.3004,-4.2947,-4.295,-4.306,-4.306,-4.2985,-4.3183,-4.3087,-4.3104,-4.3178,-4.3207,-4.323,-4.3227,-4.2869,0,0,0,0,0,-4.2925,-4.2985,-4.297,-4.3083,-4.3094,-4.3062,-4.3092,-4.3056,-4.3072,-4.3079,-4.3072,-4.309,-4.3139,-4.3174,-4.3219,-4.3355,-4.3353,-4.3421,-4.3444,-4.3463,-4.3478,-4.3546,-4.3575,-4.3267,-4.3267,-4.3266,0,0,-4.3018,-4.3018,-4.3059,-4.3111,-4.312,-4.3182,-4.3069,-4.3141,-4.3185,-4.3089,-4.3183,-4.318,-4.3195,-4.3314,-4.3366,-4.3317,-4.3563,-4.348,-4.3495,-4.3499,-4.3563,-4.3592,-4.3618,-4.3276,-4.3274,-4.3273,0,0,-4.3218,-4.3226,-4.3319,-4.3331,-4.3346,-4.3323,-4.3346,-4.3346,-4.3339,-4.3433,-4.3361,-4.3414,-4.3502,-4.3515,-4.3533,-4.3736,-4.3678,-4.3753,-4.3873,-4.3941,-4.3965,-4.3986,-4.4055,-4.4081,-4.3768,-4.3768,-4.3769,0,-4.3332,-4.3423,-4.3374,-4.3449,-4.3473,-4.3388,-4.3481,-4.3495,-4.3524,-4.3542,-4.3487,-4.3594,-4.3599,-4.3717,-4.3766,-4.3785,-4.3807,-4.3751,-4.3965,-4.3986,-4.4005,-4.4071,-4.4097,-4.3777,-4.3776,-4.3775,-4.3774,0,-4.356,-4.3625,-4.3698,-4.3727,-4.3759,-4.3844,-4.3806,-4.3844,-4.3806,-4.3789,-4.3884,-4.3886,-4.3929,-4.3955,-4.3919,-4.4068,-4.4036,-4.3975,-4.3877,-4.4044,-4.4104,-4.4129,-4.379,-4.3786,-4.3784,-4.3782,0,0,-4.3847,-4.3847,-4.3875,-4.3885,-4.3895,-4.3943,-4.4022,-4.4064,-4.4096,-4.4119,-4.4182,-4.4258,-4.42,-4.4221,-4.4185,-4.4245,-4.4402,-4.4175,-4.4175,-4.4215,-4.4563,-4.4607,-4.4637,-4.4365,-4.4369,-4.4373,-4.456,0,-4.4042,-4.4177,-4.4134,-4.427,-4.4327,-4.4247,-4.4315,-4.4328,-4.4314,-4.436,-4.4344,-4.4397,-4.4319,-4.433,-4.4386,-4.4371,-4.4471,-4.4357,-4.4421,-4.4424,-4.4416,-4.4669,-4.4716,-4.4893,-4.4584,-4.4588,-4.4591,0,-4.4286,-4.4317,-4.4459,-4.4455,-4.4478,-4.4541,-4.4573,-4.4619,-4.463,-4.4616,-4.4638,-4.4589,-4.4665,-4.4569,-4.4671,-4.4595,-4.4619,-4.4616,-4.4621,-4.4623,-4.4515,-4.4675,-4.4949,-4.4974,-4.4628,-4.4625,-4.4623,0,-4.4477,-4.4555,-4.4648,-4.466,-4.466,-4.4705,-4.4707,-4.4714,-4.474,-4.4769,-4.4785,-4.4823,-4.4844,-4.4873,-4.4835,-4.4769,-4.4943,-4.4844,-4.493,-4.4932,-4.4969,-4.4966,-4.5247,-4.4989,-4.4989,-4.4989,-4.4988,0,-4.4697,-4.4786,-4.4733,-4.4791,-4.4887,-4.4837,-4.4934,-4.4926,-4.4933,-4.4986,-4.492,-4.4972,-4.492,-4.4966,-4.4937,-4.5025,-4.5035,-4.5024,-4.5015,-4.5028,-4.5029,-4.5041,-4.5027,-4.4996,-4.4994,-4.4993,-4.4991,0,-4.4926,-4.4895,-4.4991,-4.4982,-4.4982,-4.5053,-4.5045,-4.5096,-4.5077,-4.5146,-4.5159,-4.5129,-4.518,-4.5146,-4.5198,-4.5178,-4.5291,-4.5267,-4.5287,-4.5279,-4.5367,-4.5358,-4.5663,-4.5699,-4.5421,-4.5424,-4.5426,0,-4.5067,-4.5133,-4.513,-4.5161,-4.5167,-4.5218,-4.5244,-4.5197,-4.5227,-4.5244,-4.5293,-4.5338,-4.5372,-4.5457,-4.5439,-4.5478,-4.5451,-4.5556,-4.5457,-4.5467,-4.5449,-4.5444,-4.5449,-4.5575,-4.5578,-4.5581,-4.5583,0,-4.5319,-4.5299,-4.5339,-4.5374,-4.5407,-4.5432,-4.5451,-4.548,-4.5432,-4.5469,-4.552,-4.5546,-4.5597,-4.5642,-4.5674,-4.5674,-4.562,-4.5615,-4.5636,-4.5649,-4.5657,-4.565,-4.5338,-4.5607,-4.5605,-4.5603,-4.5602,-4.5601,-4.5506,-4.5559,-4.5565,-4.5611,-4.562,-4.564,-4.5687,-4.5673,-4.5714,-4.5752,-4.5722,-4.5782,-4.579,-4.5826,-4.5834,-4.5879,-4.5836,-4.5869,-4.5876,-4.5884,-4.5894,-4.5652,-4.5885,-4.5884,-4.5884,-4.5883,-4.5883,0,-4.5751,-4.575,-4.5793,-4.5822,-4.5857,-4.5804,-4.5822,-4.5855,-4.5908,-4.592,-4.5954,-4.6011,-4.6054,-4.6039,-4.6077,-4.6116,-4.6092,-4.6127,-4.6122,-4.6122,-4.5932,-4.5908,-4.6145,-4.6145,-4.6145,-4.6145,-4.6145,-4.6145,-4.5883,-4.5969,-4.5951,-4.604,-4.6039,-4.6096,-4.6111,-4.6127,-4.6136,-4.6202,-4.6237,-4.6227,-4.6228,-4.6265,-4.6301,-4.6295,-4.6311,-4.6355,-4.634,-4.6162,-4.6136,-4.6111,-4.6088,-4.6359,-4.636,-4.6525,-4.6527,-4.6528]},{"header":{"parameterUnit":"m.s-1","parameterCategory":1,"la1":30.2991,"la2":30.254,"lo1":-89.0895,"lo2":-89.0444,"dy":0.0017,"dx":0.0017,"nx":28,"ny":28,"refTime":"2025-01-24T09:00:00:Z","depth":0,"parameterNumber":3,"parameterNumberName":"V-component_of_WINDS"},"data":[0,0,0,0,0,0,0,0,0,0,0,0,0,0,0,0,0,0,0,0,0,0,0,0,0,0,0,0,0,0,0,0,0,0,0,0,0,0,0,0,0,0,0,0,0,0,0,0,0,0,0,0,0,0,0,0,0,0,-1.013,-1.013,0,-1.0174,-1.0175,-1.0175,-1.0177,-1.0176,-1.0176,-1.0175,-1.022,-1.0222,-1.0224,0,0,0,0,0,0,0,0,0,0,0,0,0,-1.0045,-1.0047,-1.013,-1.013,-1.0131,-1.0174,-1.0175,-1.0175,-1.0177,-1.0176,-1.0175,-1.0175,-1.022,-1.0222,-1.0224,0,0,0,0,0,0,0,0,0,0,0,0,0,-1.0085,-1.0047,-1.013,-1.0137,-1.0138,-1.0174,-1.0175,-1.0175,-1.0177,-1.0176,-1.0175,-1.0175,-1.0219,-1.0222,-1.0224,-1.0256,0,0,-1.0232,-1.0233,0,0,0,0,0,0,0,0,-1.0083,-1.0088,-1.0135,-1.0136,-1.0138,-1.0169,-1.0161,-1.0202,-1.0177,-1.0162,-1.0175,-1.0174,-1.0204,-1.0208,-1.0218,-1.0258,-1.026,-1.0232,-1.0234,-1.0235,-1.0236,0,0,0,0,0,0,0,-1.008,-1.0086,-1.0147,-1.0136,-1.0137,-1.0137,-1.0142,-1.0169,-1.0187,-1.0163,-1.0164,-1.0169,-1.0205,-1.0215,-1.0219,-1.0261,-1.0232,-1.0235,-1.0236,-1.0237,-1.0327,-1.0328,0,0,0,0,0,0,-1.0076,-1.0084,-1.0146,-1.0149,-1.0108,-1.0139,-1.0145,-1.016,-1.0187,-1.019,-1.0169,-1.0169,-1.0211,-1.0216,-1.0221,-1.0258,-1.0235,-1.0237,-1.0239,-1.0326,-1.0327,-1.0328,0,0,0,0,0,0,-1.0074,-1.0081,-1.0144,-1.0116,-1.0124,-1.0142,-1.0159,-1.0161,-1.0172,-1.0191,-1.0194,-1.0177,-1.0211,-1.0217,-1.0247,-1.026,-1.0239,-1.0241,-1.0325,-1.0326,-1.0328,-1.0334,0,0,0,0,0,0,-1.0072,-1.0081,-1.0094,-1.0117,-1.0126,-1.017,-1.0159,-1.0163,-1.0176,-1.0176,-1.02,-1.0203,-1.0211,-1.0243,-1.0249,-1.0263,-1.0243,-1.0324,-1.0326,-1.0327,-1.0333,-1.0335,-1.0338,0,0,0,0,0,-1.0068,-1.0094,-1.0094,-1.0102,-1.0142,-1.0171,-1.0176,-1.0185,-1.0177,-1.019,-1.0202,-1.0202,-1.0257,-1.0246,-1.0253,-1.0268,-1.0323,-1.0325,-1.0327,-1.0332,-1.0335,-1.0338,0,0,0,0,0,0,-1.0073,-1.0097,-1.0098,-1.0132,-1.0149,-1.0171,-1.0188,-1.0188,-1.0208,-1.0207,-1.0217,-1.0222,-1.0251,-1.0263,-1.025,-1.0299,-1.0289,-1.0293,-1.029,-1.0294,-1.0296,-1.0292,-1.0245,0,0,0,0,0,-1.0078,-1.0099,-1.0119,-1.0147,-1.0156,-1.017,-1.0183,-1.0188,-1.0207,-1.0214,-1.0228,-1.0246,-1.0267,-1.0281,-1.0302,-1.0334,-1.0339,-1.0348,-1.035,-1.0352,-1.0355,-1.0371,-1.0375,-1.0334,-1.0334,-1.0334,0,0,-1.0088,-1.0104,-1.0117,-1.0149,-1.0163,-1.0184,-1.0176,-1.02,-1.0215,-1.0218,-1.0246,-1.0257,-1.0277,-1.0308,-1.0322,-1.0318,-1.0367,-1.0354,-1.0356,-1.0358,-1.0373,-1.0377,-1.038,-1.0336,-1.0335,-1.0335,0,0,-1.0118,-1.0133,-1.0157,-1.017,-1.0191,-1.02,-1.0206,-1.0227,-1.0234,-1.0263,-1.0264,-1.0283,-1.032,-1.0333,-1.0345,-1.0377,-1.0377,-1.0384,-1.0397,-1.0412,-1.0415,-1.0418,-1.0428,-1.0432,-1.0386,-1.0387,-1.0387,0,-1.0128,-1.0161,-1.0169,-1.0192,-1.0205,-1.0207,-1.023,-1.0243,-1.027,-1.0278,-1.0273,-1.0318,-1.0332,-1.0365,-1.0372,-1.0382,-1.0388,-1.0381,-1.0414,-1.0417,-1.042,-1.0429,-1.0433,-1.0387,-1.0387,-1.0387,-1.0387,0,-1.0171,-1.0194,-1.021,-1.0235,-1.025,-1.0273,-1.0284,-1.0298,-1.0301,-1.031,-1.0338,-1.0354,-1.0378,-1.0386,-1.039,-1.0419,-1.0415,-1.0412,-1.0403,-1.0424,-1.0433,-1.0437,-1.0388,-1.0388,-1.0387,-1.0387,0,0,-1.0206,-1.0234,-1.024,-1.025,-1.0272,-1.0289,-1.0312,-1.0334,-1.0345,-1.0363,-1.0381,-1.0411,-1.0407,-1.042,-1.0425,-1.0439,-1.0461,-1.0434,-1.0435,-1.0438,-1.0493,-1.0494,-1.0499,-1.0462,-1.0462,-1.0463,-1.0491,0,-1.0237,-1.0277,-1.0284,-1.0319,-1.0339,-1.034,-1.0359,-1.0374,-1.0382,-1.04,-1.0409,-1.043,-1.0424,-1.0432,-1.0445,-1.0456,-1.0472,-1.0454,-1.0478,-1.0478,-1.0472,-1.0504,-1.0506,-1.0532,-1.0494,-1.0495,-1.0495,0,-1.028,-1.0297,-1.0334,-1.0351,-1.036,-1.0377,-1.0396,-1.0413,-1.043,-1.0435,-1.0449,-1.0452,-1.0474,-1.0463,-1.0493,-1.048,-1.049,-1.0496,-1.0498,-1.05,-1.0488,-1.0506,-1.054,-1.0544,-1.0501,-1.0501,-1.0501,0,-1.03,-1.0333,-1.0358,-1.0367,-1.0389,-1.04,-1.041,-1.0426,-1.0438,-1.0455,-1.0462,-1.0482,-1.0492,-1.0507,-1.0514,-1.0506,-1.0543,-1.0534,-1.0547,-1.0547,-1.0555,-1.0554,-1.059,-1.0562,-1.0562,-1.0562,-1.0562,0,-1.0333,-1.0355,-1.0367,-1.0383,-1.0407,-1.0414,-1.0437,-1.0446,-1.046,-1.0476,-1.0479,-1.0494,-1.0504,-1.052,-1.0526,-1.0549,-1.0554,-1.0558,-1.0559,-1.0558,-1.0557,-1.0564,-1.0562,-1.0563,-1.0563,-1.0563,-1.0563,0,-1.036,-1.0369,-1.0397,-1.0414,-1.0419,-1.0436,-1.045,-1.0465,-1.0472,-1.0493,-1.0499,-1.0511,-1.053,-1.0539,-1.0563,-1.0567,-1.0593,-1.0593,-1.0587,-1.0587,-1.06,-1.0598,-1.0641,-1.0646,-1.0616,-1.0616,-1.0616,0,-1.0381,-1.0397,-1.0416,-1.0427,-1.0437,-1.0455,-1.0466,-1.0474,-1.0486,-1.0504,-1.0516,-1.0536,-1.0552,-1.0582,-1.0593,-1.0611,-1.0611,-1.0625,-1.0614,-1.0611,-1.061,-1.0609,-1.061,-1.0627,-1.0627,-1.0628,-1.0628,0,-1.0416,-1.0419,-1.0436,-1.0454,-1.0468,-1.0483,-1.0497,-1.0506,-1.0515,-1.0528,-1.0548,-1.056,-1.0583,-1.0602,-1.062,-1.0629,-1.063,-1.0631,-1.0635,-1.0633,-1.0628,-1.063,-1.0591,-1.063,-1.063,-1.063,-1.063,-1.0629,-1.044,-1.0454,-1.0468,-1.0487,-1.0498,-1.051,-1.0524,-1.0533,-1.0549,-1.0569,-1.0572,-1.0592,-1.0607,-1.0631,-1.0641,-1.0656,-1.0653,-1.0659,-1.066,-1.0661,-1.0661,-1.0626,-1.066,-1.066,-1.0659,-1.0659,-1.0659,0,-1.0474,-1.0483,-1.05,-1.0519,-1.0533,-1.0531,-1.0546,-1.0558,-1.0576,-1.0589,-1.0604,-1.0625,-1.0643,-1.0654,-1.0671,-1.0681,-1.0682,-1.0686,-1.0685,-1.0686,-1.0664,-1.0658,-1.0685,-1.0685,-1.0685,-1.0685,-1.0685,-1.0685,-1.0493,-1.0516,-1.0521,-1.0549,-1.0557,-1.0577,-1.0586,-1.0597,-1.0607,-1.0631,-1.0645,-1.0652,-1.0664,-1.0682,-1.0697,-1.07,-1.0706,-1.071,-1.0712,-1.0691,-1.0688,-1.0686,-1.0681,-1.0711,-1.0711,-1.0734,-1.0734,-1.0734]}]]